Regional Weather Roundup
Issued by NWS Portland, ME

Current Version | Previous Version | Text Only | Print | Product List | Glossary On
Versions: 1 2 3 4 5 6 7 8 9 10 11 12 13 14 15 16 17 18 19 20 21 22 23 24 25 26 27 28 29 30 31 32 33 34 35 36 37 38 39 40 41 42 43 44 45 46 47 48 49 50
000 ASUS41 KGYX 221110 RWRGYX WEATHER ROUNDUP FOR MAINE AND NEW HAMPSHIRE NATIONAL WEATHER SERVICE GRAY ME 600 AM EST THU FEB 22 2018 MEZ002-005-006-010-012-015-018-020-021-024-026-027-029-221200- MAINE CITY SKY/WX TMP DP RH WIND PRES REMARKS PORTLAND CLOUDY 36 20 52 N10 30.59R SANFORD CLOUDY 37 24 59 NE7 30.59R BAR HARBOR FAIR 31 20 63 N7 30.59R WISCASSET CLOUDY 35 15 44 MISG 30.61R ROCKLAND MOCLDY 34 15 46 VRB6 30.58R FRYEBURG MOCLDY 33 21 61 NE5 30.59R LEWISTONAUBURN CLOUDY 33 17 51 N9 30.60R AUGUSTA FAIR 32 11 41 N14 30.59R WATERVILLE FAIR 31 13 47 N9 30.55R BANGOR MOCLDY 29 17 61 NW13 30.60R WCI 19 GREENVILLE N/A 18 11 74 N10 30.52R WCI 6 MILLINOCKET FAIR 23 10 57 W6 30.61R HOULTON FAIR 17 4 56 N14 30.58R WCI 3 PRESQUE ISLE FAIR 13 4 67 CALM 30.62R FRENCHVILLE FAIR 7 -1 70 NW13 30.56R WCI -9 CARIBOU FAIR 11 0 61 NW10 30.58R WCI -3 $$ NHZ002-005-008-009-011-012-014-221200- NEW HAMPSHIRE CITY SKY/WX TMP DP RH WIND PRES REMARKS PORTSMOUTH CLOUDY 39 22 51 NW7 30.58R ROCHESTER CLOUDY 37 22 54 NW9 30.57R MANCHESTER CLOUDY 39 20 46 N9 30.58R CONCORD CLOUDY 36 19 50 NW10 30.59R LACONIA CLOUDY 35 17 47 CALM 30.59R PLYMOUTH CLOUDY 33 19 57 W8 30.59S BERLIN FAIR 27 14 58 NW7 30.59R WHITEFIELD FAIR 26 22 84 CALM 30.60R JAFFREY CLOUDY 36 19 50 CALM 30.57R KEENE CLOUDY 36 20 52 N12 30.60R LEBANON MOCLDY 33 18 53 N8 30.60R MT WASHINGTON MOCLDY 16 -6 38 NW49 N/A WCI -9 $$ VTZ005-007-008-221200- VERMONT CITY SKY/WX TMP DP RH WIND PRES REMARKS MONTPELIER FAIR 27 18 69 CALM 30.64R BURLINGTON MOCLDY 29 16 58 N7 30.66S $$ MAZ007-012-024-CTZ003-RIZ002-NYZ038-NYZ072-221200- SOUTHERN NEW ENGLAND AND NY CITY SKY/WX TMP DP RH WIND PRES REMARKS BOSTON CLOUDY 43 23 45 N9 30.59R WORCESTER CLOUDY 39 21 48 NE7 30.55R NANTUCKET LGT RAIN 43 38 82 N18 30.54R PROVIDENCE LGT RAIN 45 27 49 N15 30.58R HARTFORD CLOUDY 43 21 41 N10 30.58R ALBANY CLOUDY 37 25 61 NE9 30.62R NEW YORK CITY CLOUDY 46 35 65 NE14 30.55R $$ ANZ081-ANZ082-ANZ150-NHZ014-MEZ023>029-221200- COASTAL MARINE OBSERVATIONS STATION/POSITION TIME TEMP WIND PRES WAVE AIR SEA DIR/SP/G HT/PER (UTC) (F) (DEG/KT/KT) (MB) (FT/S) MOUNT DESERT ROC 1100 35 340/ 22/ 24 1034.8R MATINICUS ROCK 1100 35 360/ 16/ 18 1035.3R ISLE OF SHOALS 1100 40 10/ 14/ 16 1035.8R JEFFREYS LEDGE 1006 42 N/A 4/ 4 GEORGES BANK BUO 0950 52 58 1018.2 12/ 9 $$ .............KEY.............. WCI - WIND CHILL TC - TEMPERATURE IN CELSIUS VSB - VISIBILITY IN MILES HX - HEAT INDEX FAIR- INDICATES FEW OR NO CLOUDS BELOW 12,000 FT, WITH NO SIGNIFICANT WEATHER AND/OR OBSTRUCTIONS TO VISIBILITY.

USA.gov is the U.S. government's official web portal to all federal, state and local government web resources and services.